| time (UTC) | temp F | wind direction | speed knots | gust knots | rain 1hr in | rain 24hr in | rain mn in | humidity % | barometer mb |
| 20260503012508 | 54 | 144 | 0.0 | 0.0 | 0.00 | 0.48 | 0.03 | 91 | 1014.1 |
| 20260503011508 | 55 | 144 | 0.0 | 0.0 | 0.00 | 0.48 | 0.03 | 91 | 1014.1 |
| 20260503011008 | 55 | 144 | 0.0 | 0.0 | 0.00 | 0.48 | 0.03 | 91 | 1014.1 |
| 20260503010508 | 55 | 144 | 0.0 | 0.0 | 0.00 | 0.48 | 0.03 | 91 | 1014.2 |
| 20260503010013 | 55 | 144 | 0.0 | 0.0 | 0.00 | 0.48 | 0.03 | 91 | 1014.3 |
| 20260503005508 | 55 | 144 | 0.0 | 0.0 | 0.00 | 0.48 | 0.03 | 91 | 1014.3 |
| 20260503005007 | 55 | 144 | 0.0 | 0.0 | 0.00 | 0.48 | 0.03 | 91 | 1014.3 |
| 20260503003507 | 55 | 144 | 0.0 | 0.0 | 0.00 | 0.48 | 0.03 | 91 | 1014.4 |
| 20260503003007 | 55 | 144 | 0.0 | 0.0 | 0.00 | 0.48 | 0.03 | 90 | 1014.5 |
| 20260503002508 | 55 | 144 | 0.0 | 0.0 | 0.00 | 0.48 | 0.03 | 90 | 1014.5 |
| 20260503002007 | 55 | 144 | 0.0 | 0.0 | 0.00 | 0.48 | 0.03 | 90 | 1014.5 |
| 20260503000508 | 56 | 144 | 0.0 | 0.0 | 0.00 | 0.48 | 0.03 | 89 | 1014.6 |
| 20260502235509 | 56 | 144 | 0.0 | 0.0 | 0.00 | 0.48 | 0.03 | 89 | 1014.7 |
| 20260502234507 | 56 | 144 | 0.0 | 0.0 | 0.00 | 0.48 | 0.03 | 89 | 1014.8 |
| 20260502234008 | 56 | 144 | 0.9 | 2.6 | 0.00 | 0.48 | 0.03 | 89 | 1014.9 |
| 20260502233008 | 56 | 142 | 1.7 | 6.1 | 0.00 | 0.48 | 0.03 | 89 | 1014.8 |
| 20260502232507 | 56 | 9 | 0.0 | 0.0 | 0.00 | 0.48 | 0.03 | 89 | 1014.7 |
| 20260502231508 | 56 | 9 | 0.0 | 2.6 | 0.03 | 0.48 | 0.03 | 89 | 1014.8 |
| 20260502231007 | 56 | 9 | 1.7 | 2.6 | 0.03 | 0.48 | 0.03 | 89 | 1014.8 |
| 20260502230508 | 56 | 342 | 2.6 | 4.3 | 0.03 | 0.48 | 0.03 | 88 | 1014.8 |
| 20260502230007 | 56 | 321 | 1.7 | 2.6 | 0.03 | 0.48 | 0.03 | 87 | 1014.8 |
| 20260502225507 | 56 | 321 | 0.9 | 5.2 | 0.03 | 0.48 | 0.03 | 87 | 1014.9 |
| 20260502225007 | 56 | 327 | 4.3 | 5.2 | 0.03 | 0.48 | 0.03 | 87 | 1014.8 |
| 20260502223508 | 57 | 149 | 1.7 | 4.3 | 0.03 | 0.48 | 0.03 | 86 | 1014.7 |
| 20260502223007 | 57 | 170 | 1.7 | 2.6 | 0.03 | 0.48 | 0.03 | 85 | 1014.9 |
| 20260502222508 | 57 | 141 | 1.7 | 4.3 | 0.03 | 0.48 | 0.03 | 84 | 1014.9 |
| 20260502222008 | 58 | 170 | 1.7 | 4.3 | 0.02 | 0.46 | 0.02 | 82 | 1015.2 |
| 20260502221507 | 58 | 221 | 3.5 | 5.2 | 0.00 | 0.45 | 0.00 | 82 | 1015.3 |
| 20260502221007 | 57 | 196 | 2.6 | 4.3 | 0.00 | 0.45 | 0.00 | 83 | 1015.1 |
| 20260502220508 | 57 | 207 | 0.0 | 2.6 | 0.00 | 0.45 | 0.00 | 85 | 1014.9 |
| 20260502220007 | 56 | 210 | 0.0 | 0.0 | 0.00 | 0.45 | 0.00 | 86 | 1014.9 |
| 20260502215007 | 56 | 210 | 0.0 | 0.0 | 0.00 | 0.45 | 0.45 | 85 | 1015.1 |
| 20260502214507 | 55 | 210 | 0.0 | 0.0 | 0.00 | 0.45 | 0.45 | 85 | 1015.1 |
| 20260502214007 | 56 | 210 | 0.0 | 0.0 | 0.00 | 0.45 | 0.45 | 85 | 1015.1 |
| 20260502213507 | 56 | 210 | 0.0 | 0.0 | 0.00 | 0.45 | 0.45 | 85 | 1015.2 |
| 20260502213007 | 56 | 210 | 0.0 | 0.0 | 0.00 | 0.45 | 0.45 | 86 | 1015.1 |
| 20260502212507 | 56 | 210 | 0.0 | 0.0 | 0.00 | 0.45 | 0.45 | 85 | 1015.0 |
| 20260502212007 | 56 | 210 | 0.0 | 0.0 | 0.00 | 0.45 | 0.45 | 84 | 1015.2 |
| 20260502211507 | 56 | 210 | 0.0 | 0.0 | 0.00 | 0.45 | 0.45 | 84 | 1014.9 |
| 20260502211007 | 57 | 210 | 0.0 | 0.0 | 0.00 | 0.45 | 0.45 | 82 | 1014.9 |
| 20260502210007 | 57 | 210 | 0.0 | 0.0 | 0.00 | 0.45 | 0.45 | 82 | 1014.9 |
| 20260502205506 | 57 | 210 | 0.0 | 0.0 | 0.00 | 0.45 | 0.45 | 82 | 1014.9 |
| 20260502205007 | 57 | 210 | 0.0 | 0.0 | 0.00 | 0.45 | 0.45 | 82 | 1014.8 |
| 20260502204507 | 57 | 210 | 0.0 | 0.0 | 0.00 | 0.45 | 0.45 | 83 | 1014.7 |
| 20260502204007 | 57 | 210 | 0.0 | 0.0 | 0.00 | 0.45 | 0.45 | 83 | 1014.7 |
| 20260502203507 | 57 | 210 | 0.0 | 2.6 | 0.00 | 0.45 | 0.45 | 85 | 1014.6 |
| 20260502203007 | 57 | 222 | 0.0 | 0.0 | 0.00 | 0.45 | 0.45 | 85 | 1014.6 |
| 20260502202507 | 57 | 222 | 0.0 | 0.0 | 0.00 | 0.45 | 0.45 | 84 | 1014.5 |
| 20260502202007 | 57 | 222 | 0.0 | 0.0 | 0.00 | 0.45 | 0.45 | 84 | 1014.5 |
| 20260502201507 | 57 | 222 | 0.0 | 0.0 | 0.00 | 0.45 | 0.45 | 84 | 1014.3 |
| 20260502201007 | 57 | 222 | 0.0 | 0.0 | 0.00 | 0.45 | 0.45 | 84 | 1014.3 |
| 20260502200007 | 57 | 222 | 0.0 | 0.0 | 0.00 | 0.45 | 0.45 | 83 | 1014.2 |
| 20260502195507 | 58 | 222 | 0.0 | 0.0 | 0.00 | 0.45 | 0.45 | 83 | 1014.2 |
| 20260502195007 | 58 | 222 | 0.0 | 0.0 | 0.00 | 0.45 | 0.45 | 82 | 1014.1 |
| 20260502194507 | 59 | 222 | 0.0 | 0.0 | 0.00 | 0.45 | 0.45 | 81 | 1013.9 |
| 20260502193508 | 60 | 214 | 1.7 | 2.6 | 0.00 | 0.45 | 0.45 | 79 | 1014.0 |
| 20260502193007 | 60 | 186 | 0.0 | 1.7 | 0.00 | 0.45 | 0.45 | 79 | 1014.0 |
| 20260502192507 | 60 | 186 | 0.0 | 0.0 | 0.00 | 0.45 | 0.45 | 79 | 1014.0 |
| 20260502192007 | 61 | 186 | 0.0 | 1.7 | 0.00 | 0.45 | 0.45 | 78 | 1013.9 |
| 20260502191507 | 61 | 186 | 0.0 | 1.7 | 0.00 | 0.45 | 0.45 | 78 | 1013.9 |
| 20260502191007 | 61 | 197 | 0.0 | 0.0 | 0.00 | 0.45 | 0.45 | 78 | 1013.8 |
| 20260502190507 | 61 | 211 | 1.7 | 2.6 | 0.00 | 0.45 | 0.45 | 78 | 1013.8 |
| 20260502190007 | 61 | 206 | 1.7 | 2.6 | 0.00 | 0.45 | 0.45 | 78 | 1013.8 |
| 20260502185507 | 61 | 271 | 0.9 | 2.6 | 0.00 | 0.45 | 0.45 | 78 | 1013.8 |
| 20260502185007 | 61 | 287 | 2.6 | 5.2 | 0.00 | 0.45 | 0.45 | 77 | 1013.9 |
| 20260502184010 | 62 | 285 | 1.7 | 2.6 | 0.00 | 0.45 | 0.45 | 76 | 1013.8 |
| 20260502183507 | 62 | 287 | 0.9 | 5.2 | 0.00 | 0.45 | 0.45 | 76 | 1013.8 |
| 20260502182506 | 62 | 287 | 4.3 | 6.1 | 0.00 | 0.45 | 0.45 | 76 | 1013.8 |
| 20260502182006 | 61 | 293 | 2.6 | 5.2 | 0.00 | 0.45 | 0.45 | 78 | 1013.7 |
| 20260502181507 | 61 | 289 | 1.7 | 2.6 | 0.00 | 0.45 | 0.45 | 79 | 1013.7 |
| 20260502181006 | 60 | 290 | 2.6 | 6.1 | 0.00 | 0.45 | 0.45 | 79 | 1013.9 |
| 20260502180507 | 60 | 290 | 1.7 | 6.1 | 0.00 | 0.45 | 0.45 | 79 | 1013.7 |
| 20260502170507 | 60 | 294 | 6.1 | 8.7 | 0.00 | 0.45 | 0.45 | 78 | 1014.1 |
| 20260502164007 | 59 | 306 | 9.6 | 14.8 | 0.00 | 0.45 | 0.45 | 80 | 1013.9 |
| 20260502163506 | 59 | 316 | 9.6 | 13.0 | 0.00 | 0.45 | 0.45 | 81 | 1014.0 |
| 20260502162507 | 59 | 298 | 9.6 | 13.0 | 0.00 | 0.45 | 0.45 | 81 | 1014.1 |
| 20260502162007 | 60 | 293 | 10.4 | 15.6 | 0.00 | 0.45 | 0.45 | 80 | 1014.1 |
| 20260502161506 | 60 | 295 | 10.4 | 17.4 | 0.00 | 0.45 | 0.45 | 81 | 1014.1 |
| 20260502161006 | 60 | 306 | 13.9 | 20.9 | 0.00 | 0.45 | 0.45 | 80 | 1014.1 |
| 20260502152006 | 65 | 150 | 2.6 | 7.0 | 0.00 | 0.45 | 0.45 | 77 | 1013.9 |
| 20260502151507 | 65 | 189 | 3.5 | 7.8 | 0.00 | 0.45 | 0.45 | 77 | 1013.9 |
| 20260502151007 | 65 | 182 | 2.6 | 4.3 | 0.00 | 0.45 | 0.45 | 76 | 1013.8 |
| 20260502150507 | 65 | 142 | 0.9 | 2.6 | 0.00 | 0.45 | 0.45 | 77 | 1014.0 |
| 20260502130506 | 57 | 227 | 9.6 | 15.6 | 0.17 | 0.37 | 0.37 | 83 | 1016.1 |
| 20260502123506 | 64 | 175 | 7.0 | 13.0 | 0.00 | 0.20 | 0.20 | 71 | 1015.7 |
| 20260502123007 | 64 | 180 | 8.7 | 13.9 | 0.00 | 0.20 | 0.20 | 71 | 1015.7 |
| 20260502122506 | 64 | 193 | 8.7 | 13.9 | 0.00 | 0.20 | 0.20 | 71 | 1015.6 |
| 20260502121507 | 64 | 166 | 6.1 | 8.7 | 0.00 | 0.20 | 0.20 | 73 | 1016.0 |
| 20260502121006 | 64 | 183 | 7.8 | 12.2 | 0.00 | 0.20 | 0.20 | 72 | 1016.1 |
| 20260502120506 | 63 | 181 | 7.8 | 10.4 | 0.00 | 0.20 | 0.20 | 73 | 1016.1 |
| 20260502115506 | 63 | 174 | 6.1 | 11.3 | 0.00 | 0.20 | 0.20 | 77 | 1016.1 |
| 20260502115006 | 63 | 182 | 6.1 | 10.4 | 0.00 | 0.20 | 0.20 | 78 | 1016.2 |
| 20260502114506 | 62 | 175 | 6.1 | 10.4 | 0.00 | 0.20 | 0.20 | 78 | 1016.2 |
| 20260502113506 | 62 | 190 | 5.2 | 10.4 | 0.00 | 0.20 | 0.20 | 81 | 1016.5 |
| 20260502113007 | 61 | 183 | 5.2 | 10.4 | 0.00 | 0.20 | 0.20 | 82 | 1016.5 |
| 20260502112506 | 61 | 169 | 4.3 | 8.7 | 0.00 | 0.20 | 0.20 | 83 | 1016.6 |
| 20260502112006 | 61 | 198 | 2.6 | 6.1 | 0.00 | 0.20 | 0.20 | 84 | 1016.6 |
| 20260502111506 | 61 | 202 | 2.6 | 8.7 | 0.00 | 0.20 | 0.20 | 85 | 1016.7 |
| 20260502110506 | 60 | 187 | 0.9 | 5.2 | 0.00 | 0.20 | 0.20 | 86 | 1016.9 |
| 20260502105507 | 60 | 187 | 2.6 | 5.2 | 0.00 | 0.20 | 0.20 | 86 | 1017.3 |
| 20260502105006 | 60 | 191 | 1.7 | 2.6 | 0.01 | 0.20 | 0.20 | 86 | 1017.2 |
| 20260502104506 | 60 | 151 | 0.0 | 2.6 | 0.02 | 0.20 | 0.20 | 87 | 1017.1 |
| 20260502104006 | 60 | 151 | 1.7 | 4.3 | 0.02 | 0.20 | 0.20 | 87 | 1017.3 |
| 20260502103506 | 60 | 174 | 0.0 | 0.9 | 0.02 | 0.20 | 0.20 | 88 | 1017.3 |
| 20260502103007 | 59 | 174 | 1.7 | 2.6 | 0.02 | 0.20 | 0.20 | 88 | 1017.4 |
| 20260502102507 | 59 | 173 | 2.6 | 5.2 | 0.02 | 0.20 | 0.20 | 87 | 1017.4 |
| 20260502101508 | 59 | 195 | 2.6 | 5.2 | 0.02 | 0.20 | 0.20 | 87 | 1017.7 |
| 20260502101008 | 59 | 186 | 0.9 | 4.3 | 0.02 | 0.20 | 0.20 | 88 | 1017.7 |
| 20260502100508 | 59 | 174 | 2.6 | 5.2 | 0.02 | 0.20 | 0.20 | 87 | 1017.7 |
| 20260502091509 | 58 | 135 | 2.6 | 5.2 | 0.02 | 0.19 | 0.19 | 90 | 1017.7 |
| 20260502091008 | 58 | 122 | 1.7 | 2.6 | 0.02 | 0.19 | 0.19 | 90 | 1017.7 |
| 20260502090508 | 57 | 113 | 1.7 | 2.6 | 0.03 | 0.19 | 0.19 | 90 | 1017.8 |
| 20260502071508 | 57 | 148 | 0.9 | 2.6 | 0.08 | 0.08 | 0.08 | 89 | 1017.6 |
| 20260502071008 | 57 | 154 | 1.7 | 4.3 | 0.08 | 0.08 | 0.08 | 88 | 1017.7 |
| 20260502070008 | 57 | 182 | 0.0 | 0.0 | 0.08 | 0.08 | 0.08 | 87 | 1017.8 |
| 20260502065508 | 57 | 182 | 0.0 | 2.6 | 0.07 | 0.07 | 0.07 | 88 | 1017.8 |
| 20260502065008 | 57 | 173 | 1.7 | 2.6 | 0.06 | 0.06 | 0.06 | 86 | 1018.0 |
| 20260502064508 | 57 | 190 | 2.6 | 5.2 | 0.06 | 0.06 | 0.06 | 85 | 1017.8 |
| 20260502064008 | 58 | 206 | 2.6 | 7.0 | 0.04 | 0.04 | 0.04 | 84 | 1018.2 |
| 20260502063508 | 58 | 191 | 6.1 | 8.7 | 0.02 | 0.02 | 0.02 | 82 | 1018.2 |
| 20260502063008 | 58 | 209 | 5.2 | 10.4 | 0.00 | 0.00 | 0.00 | 81 | 1018.3 |
| 20260502062008 | 58 | 201 | 2.6 | 4.3 | 0.00 | 0.00 | 0.00 | 81 | 1017.9 |
| 20260502061008 | 58 | 132 | 0.9 | 2.6 | 0.00 | 0.00 | 0.00 | 81 | 1017.5 |
| 20260502060508 | 58 | 134 | 1.7 | 4.3 | 0.00 | 0.00 | 0.00 | 81 | 1017.3 |
| 20260502060008 | 58 | 156 | 0.9 | 2.6 | 0.00 | 0.00 | 0.00 | 81 | 1017.2 |
| 20260502055508 | 58 | 162 | 0.0 | 4.3 | 0.00 | 0.00 | 0.00 | 82 | 1017.2 |
| 20260502055008 | 58 | 155 | 0.9 | 2.6 | 0.00 | 0.00 | 0.00 | 82 | 1017.2 |
| 20260502054508 | 58 | 155 | 1.7 | 6.1 | 0.00 | 0.00 | 0.00 | 81 | 1017.1 |
| 20260502054008 | 58 | 136 | 1.7 | 5.2 | 0.00 | 0.00 | 0.00 | 81 | 1017.1 |
| 20260502053008 | 58 | 163 | 3.5 | 6.1 | 0.00 | 0.00 | 0.00 | 81 | 1017.3 |
| 20260502052507 | 58 | 147 | 1.7 | 4.3 | 0.00 | 0.00 | 0.00 | 81 | 1017.3 |
| 20260502052007 | 59 | 172 | 1.7 | 4.3 | 0.00 | 0.00 | 0.00 | 81 | 1017.5 |
| 20260502051508 | 59 | 181 | 3.5 | 5.2 | 0.00 | 0.00 | 0.00 | 80 | 1017.5 |
| 20260502051008 | 59 | 188 | 2.6 | 5.2 | 0.00 | 0.00 | 0.00 | 80 | 1017.6 |
| 20260502050508 | 59 | 175 | 2.6 | 7.0 | 0.00 | 0.00 | 0.00 | 80 | 1017.6 |
| 20260502050008 | 59 | 156 | 2.6 | 5.2 | 0.00 | 0.00 | 0.00 | 80 | 1017.6 |
| 20260502045508 | 59 | 155 | 2.6 | 5.2 | 0.00 | 0.00 | 0.00 | 80 | 1017.6 |
| 20260502045007 | 59 | 174 | 2.6 | 5.2 | 0.00 | 0.00 | 0.00 | 80 | 1017.6 |
| 20260502044508 | 59 | 188 | 2.6 | 5.2 | 0.00 | 0.00 | 0.00 | 80 | 1017.6 |
| 20260502044008 | 59 | 180 | 1.7 | 5.2 | 0.00 | 0.00 | 0.00 | 80 | 1017.6 |
| 20260502043008 | 59 | 191 | 1.7 | 6.1 | 0.00 | 0.00 | 0.00 | 80 | 1017.6 |
| 20260502042508 | 59 | 126 | 1.7 | 2.6 | 0.00 | 0.00 | 0.00 | 80 | 1017.4 |
| 20260502041008 | 59 | 167 | 4.3 | 5.2 | 0.00 | 0.00 | 0.00 | 80 | 1017.7 |
| 20260502040508 | 59 | 182 | 2.6 | 7.0 | 0.00 | 0.00 | 0.00 | 80 | 1017.7 |
| 20260502040008 | 59 | 155 | 0.9 | 4.3 | 0.00 | 0.00 | 0.00 | 80 | 1017.8 |
| 20260502035508 | 59 | 140 | 1.7 | 4.3 | 0.00 | 0.00 | 0.00 | 80 | 1017.8 |
| 20260502035008 | 58 | 176 | 1.7 | 6.1 | 0.00 | 0.00 | 0.00 | 80 | 1017.9 |
| 20260502034507 | 58 | 169 | 2.6 | 4.3 | 0.00 | 0.00 | 0.00 | 81 | 1018.0 |
| 20260502033507 | 58 | 178 | 0.0 | 0.0 | 0.00 | 0.00 | 0.00 | 81 | 1017.9 |
| 20260502032508 | 59 | 178 | 0.0 | 0.0 | 0.00 | 0.00 | 0.00 | 79 | 1018.0 |
| 20260502032008 | 59 | 178 | 0.0 | 0.0 | 0.00 | 0.00 | 0.00 | 79 | 1018.0 |
| 20260502031507 | 59 | 178 | 0.0 | 0.0 | 0.00 | 0.00 | 0.00 | 79 | 1018.1 |
| 20260502031008 | 59 | 178 | 0.0 | 2.6 | 0.00 | 0.00 | 0.00 | 79 | 1018.0 |
| 20260502030507 | 59 | 211 | 0.0 | 0.0 | 0.00 | 0.00 | 0.00 | 79 | 1017.9 |
| 20260502030013 | 59 | 211 | 1.7 | 2.6 | 0.00 | 0.00 | 0.00 | 79 | 1017.9 |
| 20260502025509 | 59 | 158 | 0.9 | 4.3 | 0.00 | 0.00 | 0.00 | 79 | 1018.0 |
| 20260502025008 | 59 | 158 | 0.0 | 1.7 | 0.00 | 0.00 | 0.00 | 79 | 1018.1 |
| 20260502024507 | 59 | 158 | 0.0 | 0.9 | 0.00 | 0.00 | 0.00 | 78 | 1018.0 |
| 20260502024007 | 59 | 158 | 0.9 | 1.7 | 0.00 | 0.00 | 0.00 | 78 | 1018.0 |
| 20260502023508 | 59 | 158 | 0.0 | 0.0 | 0.00 | 0.00 | 0.00 | 78 | 1017.9 |
| 20260502023008 | 59 | 192 | 0.0 | 0.0 | 0.00 | 0.00 | 0.00 | 78 | 1017.9 |
| 20260502022508 | 59 | 192 | 0.9 | 2.6 | 0.00 | 0.00 | 0.00 | 78 | 1017.9 |
| 20260502022007 | 59 | 165 | 0.9 | 6.1 | 0.00 | 0.00 | 0.00 | 78 | 1018.0 |
| 20260502021508 | 59 | 155 | 2.6 | 7.0 | 0.00 | 0.00 | 0.00 | 78 | 1017.9 |
| 20260502021008 | 59 | 162 | 4.3 | 8.7 | 0.00 | 0.00 | 0.00 | 78 | 1017.9 |
| 20260502020008 | 60 | 164 | 4.3 | 8.7 | 0.00 | 0.00 | 0.00 | 77 | 1018.0 |
| 20260502015507 | 60 | 165 | 4.3 | 10.4 | 0.00 | 0.00 | 0.00 | 77 | 1018.0 |
| 20260502015007 | 59 | 174 | 4.3 | 7.0 | 0.00 | 0.00 | 0.00 | 77 | 1018.1 |
| 20260502014508 | 59 | 150 | 3.5 | 6.1 | 0.00 | 0.00 | 0.00 | 77 | 1017.8 |
| 20260502013008 | 60 | 155 | 4.3 | 7.0 | 0.00 | 0.00 | 0.00 | 77 | 1018.0 |